STARLINK-36706, 67657

Orbit data source: Space-Track

STARLINK-36706, 67657 is a payload satellite owned by SpaceX/Seattle (US) in SSO that was launched on Mon, 02 Feb 2026 UTC via an FALCON 9 launch vehicle from the Air Force Western Test Range (AFWTR). Payload-class satellites include a variety of spacecraft equipped with specific instruments for various scientific and technological missions. These include communications satellites like Starlink; space stations such as the ISS; scientific satellites like the Hubble; Earth observation satellites from companies like Planet Labs, Umbra, and HawkEye 360; GPS; miniature CubeSats for education and research; and military/defense satellites.

Loading next visibility...
Identifier
67657, 2026-022K
Orbit
SSO
Country
Flag of USUS
Related business
Manufacturer
SpaceX/Seattle
Mission
Operational spacecraft
Bus & Motor
STARLINK V2MO, Unknown motor
Mass
575 kg wet, ~530 kg dry
Launch date (UTC)
2026-02-02 (2 months ago)
Launch vehicle
FALCON 9
Launch site
Air Force Western Test Range (AFWTR)
Object type
Payload
Rocket body
Debris
Shape & HBR
Unknown shape, 17.7 m
Radar Cross Section
RCS unknown

Expand to show TLE details & history
Last TLE update: 10 hours ago

TLE from 10 hours ago
0 STARLINK-36706
1 67657U 26022K   26095.33279604  .00034569  00000-0  10686-2 0  9999
2 67657  97.2851 129.2598 0000238  57.4079 302.7187 15.33435127  9658
Epoch: 2026-04-05T07:59Z
TLE epoch observation values (Epoch: 2026-04-05T07:59:13.577Z)
Latitude
-0.00002°
Longitude
175.8135°
Altitude
468.596 km
Speed
7.632 km/s
True Right ascension
08h 37m 02s
True Declination
0° 00' 00"
Sunlit
Object was in full shadow at epoch
Visualization orbit readout
Latitude
Unknown
Longitude
Unknown
Altitude
Unknown
Speed
Unknown
Apparent Right ascension
Unknown
Apparent Declination
Unknown
Sunlit
N/A
Visualization observer readout
Local Sidereal Time
23:39:28
Azimuth
Unknown
Elevation
Unknown
Doppler factor
Unknown
Orbital elements
Apogee altitude
462.678 km
Perigee altitude
462.353 km
Semi-major axis
6,840.652 km
Eccentricity
0.00002
Inclination
97.2851°
RAAN
129.2598°
Arg. of periapsis
57.4079°
True anomaly
302.71641°
Mean anomaly
302.7187°
Eccentric anomaly
302.71755°
Mean motion
3.83616 °/min
Orbital period
93.84 mins
BSTAR
0.0010686
Loading maneuver chart data...
Computing Atmospheric mass density...
Loading historical data...
Loading historical data...
Loading historical data...
Loading historical data...
Loading historical data...
Loading historical data...
Loading historical data...

Documentation

Showing up to 5 results
|